GW6947 Weather Reports


time (UTC)temp
C
wind
direction
speed
KPH
gust
KPH
rain 1hr
cm
rain 24hr
cm
rain mn
cm
humidity
%
barometer
mb
20260503213602 17 261 0.0 0.0 0.00 0.00 0.00 33 1050.1
20260503213058 17 251 0.0 0.0 0.00 0.00 0.00 37 1050.2
20260503212555 17 293 0.0 0.0 0.00 0.00 0.00 36 1050.4
20260503212053 17 330 0.0 0.0 0.00 0.00 0.00 34 1050.3
20260503211550 17 270 0.0 0.0 0.00 0.00 0.00 33 1050.2
20260503211045 16 269 0.0 0.0 0.00 0.00 0.00 32 1050.0
20260503210542 17 292 0.0 0.0 0.00 0.00 0.00 33 1050.5
20260503210038 17 263 0.0 0.0 0.00 0.00 0.00 33 1050.4
20260503205535 17 252 0.0 0.0 0.00 0.00 0.00 36 1050.3
20260503205031 16 171 0.0 0.0 0.00 0.00 0.00 34 1050.3
20260503204528 17 254 0.0 0.0 0.00 0.00 0.00 31 1050.3
20260503204025 16 269 0.0 0.0 0.00 0.00 0.00 31 1050.8
20260503203523 16 270 0.0 0.0 0.00 0.00 0.00 33 1050.9
20260503203020 16 129 0.0 0.0 0.00 0.00 0.00 35 1051.1
20260503202517 16 254 0.0 0.0 0.00 0.00 0.00 36 1051.1
20260503202015 16 270 0.0 0.0 0.00 0.00 0.00 37 1051.0
20260503201513 16 285 0.0 0.0 0.00 0.00 0.00 34 1051.5
20260503201010 16 169 0.0 0.0 0.00 0.00 0.00 37 1051.6
20260503200506 16 208 0.0 0.0 0.00 0.00 0.00 33 1051.6
20260503200003 17 280 0.0 0.0 0.00 0.00 0.00 32 1051.8
20260503195500 16 266 0.0 0.0 0.00 0.00 0.00 33 1051.8
20260503194956 16 227 0.0 0.0 0.00 0.00 0.00 33 1051.7
20260503194454 16 253 0.0 0.0 0.00 0.00 0.00 36 1051.8
20260503193949 16 237 0.0 0.0 0.00 0.00 0.00 33 1052.2
20260503193445 16 282 0.0 0.0 0.00 0.00 0.00 34 1052.1
20260503192940 16 226 0.0 0.0 0.00 0.00 0.00 34 1052.2
20260503192437 16 258 0.0 0.0 0.00 0.00 0.00 37 1052.2
20260503191932 16 294 0.0 0.0 0.00 0.00 0.00 36 1052.2
20260503191431 16 257 0.0 0.0 0.00 0.00 0.00 37 1052.4
20260503190927 16 250 0.0 0.0 0.00 0.00 0.00 38 1052.5
20260503190424 16 186 0.0 0.0 0.00 0.00 0.00 38 1052.7
20260503185921 16 258 0.0 0.0 0.00 0.00 0.00 36 1052.5
20260503185418 16 214 0.0 0.0 0.00 0.00 0.00 35 1052.2
20260503184916 15 249 0.0 0.0 0.00 0.00 0.00 40 1052.9
20260503184413 16 217 0.0 0.0 0.00 0.00 0.00 34 1052.9
20260503183910 16 304 0.0 0.0 0.00 0.00 0.00 34 1053.0
20260503183406 16 190 0.0 0.0 0.00 0.00 0.00 39 1053.0
20260503182903 15 148 0.0 0.0 0.00 0.00 0.00 36 1053.2
20260503182403 15 266 0.0 0.0 0.00 0.00 0.00 35 1052.9
20260503181859 15 244 0.0 0.0 0.00 0.00 0.00 40 1052.8
20260503181356 15 235 0.0 0.0 0.00 0.00 0.00 37 1053.1
20260503180853 15 89 0.0 0.0 0.00 0.00 0.00 38 1053.3
20260503180351 15 287 0.0 0.0 0.00 0.00 0.00 41 1053.3
20260503175847 15 254 0.0 0.0 0.00 0.00 0.00 32 1053.5
20260503175345 15 314 0.0 0.0 0.00 0.00 0.00 36 1053.6
20260503174840 15 258 0.0 0.0 0.00 0.00 0.00 39 1053.7
20260503174339 15 216 0.0 0.0 0.00 0.00 0.00 35 1053.7
20260503173834 15 298 0.0 0.0 0.00 0.00 0.00 37 1053.6
20260503173331 15 190 0.0 0.0 0.00 0.00 0.00 32 1054.1
20260503172827 15 294 0.0 0.0 0.00 0.00 0.00 33 1054.0
20260503172325 15 252 0.0 0.0 0.00 0.00 0.00 33 1054.1
20260503171821 15 262 0.0 0.0 0.00 0.00 0.00 37 1054.1
20260503171318 15 250 0.0 0.0 0.00 0.00 0.00 38 1054.4
20260503170815 15 155 0.0 0.0 0.00 0.00 0.00 37 1054.5
20260503170311 15 171 0.0 0.0 0.00 0.00 0.00 35 1054.5
20260503150704 13 292 0.0 0.0 0.00 0.00 0.00 40 1055.4
20260503150200 13 285 0.0 0.0 0.00 0.00 0.00 43 1055.4
20260503140124 11 271 0.0 0.0 0.00 0.00 0.00 48 1055.6
20260503131054 8 255 0.0 0.0 0.00 0.00 0.00 66 1055.4
20260503130550 7 281 0.0 0.0 0.00 0.00 0.00 69 1055.1
20260503110441 -1 40 0.0 0.0 0.00 0.00 0.00 96 1054.6
20260503090332 -1 99 0.0 0.0 0.00 0.00 0.00 95 1054.2
20260503081300 0 99 0.0 0.0 0.00 0.00 0.00 94 1053.7
20260503080756 0 99 0.0 0.0 0.00 0.00 0.00 93 1053.6
20260503080253 0 99 0.0 0.0 0.00 0.00 0.00 93 1053.6
20260503072730 0 99 0.0 0.0 0.00 0.00 0.00 92 1053.5
20260503072226 0 99 0.0 0.0 0.00 0.00 0.00 92 1053.5
20260503071723 0 99 0.0 0.0 0.00 0.00 0.00 91 1053.5
20260503071220 0 99 0.0 0.0 0.00 0.00 0.00 91 1053.3
20260503070717 0 96 0.0 0.0 0.00 0.00 0.00 90 1053.4
20260503070215 0 95 0.0 0.0 0.00 0.00 0.00 90 1053.4
20260503060139 2 96 0.0 0.0 0.00 0.00 0.00 78 1053.6
20260503054626 3 96 0.0 0.0 0.00 0.00 0.00 74 1053.7
20260503054123 3 97 0.0 0.0 0.00 0.00 0.00 73 1053.7
20260503053621 3 96 0.0 0.0 0.00 0.00 0.00 73 1053.4
20260503053120 3 96 0.0 0.0 0.00 0.00 0.00 72 1053.8
20260503052616 3 96 0.0 0.0 0.00 0.00 0.00 72 1053.8
20260503052112 3 96 0.0 0.0 0.00 0.00 0.00 72 1053.8
20260503051608 4 96 0.0 0.0 0.00 0.00 0.00 70 1053.7
20260503051106 4 96 0.0 0.0 0.00 0.00 0.00 69 1053.6
20260503050601 4 96 0.0 0.0 0.00 0.00 0.00 68 1053.8
20260503050059 4 96 0.0 0.0 0.00 0.00 0.00 68 1053.8
20260503045555 4 110 0.0 0.0 0.00 0.00 0.00 69 1053.6
20260503045053 4 109 0.0 0.0 0.00 0.00 0.00 70 1053.7
20260503044549 5 103 0.0 0.0 0.00 0.00 0.00 67 1053.7
20260503044047 5 78 0.0 0.0 0.00 0.00 0.00 66 1053.4
20260503043543 5 43 0.0 0.0 0.00 0.00 0.00 65 1053.6
20260503043040 5 44 0.0 0.0 0.00 0.00 0.00 65 1053.7
20260503042537 5 31 0.0 0.0 0.00 0.00 0.00 65 1053.4
20260503042033 5 39 0.0 0.0 0.00 0.00 0.00 65 1053.4
20260503041530 5 31 0.0 0.0 0.00 0.00 0.00 65 1053.4
20260503041028 5 35 0.0 0.0 0.00 0.00 0.00 65 1053.5
20260503040525 6 43 0.0 0.0 0.00 0.00 0.00 65 1053.6
20260503040022 5 18 0.0 0.0 0.00 0.00 0.00 65 1053.4
20260503035519 5 44 0.0 0.0 0.00 0.00 0.00 66 1053.3
20260503035016 6 338 0.0 0.0 0.00 0.00 0.00 66 1053.3
20260503034514 6 25 0.0 0.0 0.00 0.00 0.00 66 1053.3
20260503034010 5 27 0.0 0.0 0.00 0.00 0.00 67 1053.2
20260503033508 6 33 0.0 0.0 0.00 0.00 0.00 67 1053.5
20260503033006 6 29 0.0 0.0 0.00 0.00 0.00 66 1053.1
20260503032504 6 9 0.0 0.0 0.00 0.00 0.00 67 1053.1
20260503032002 6 33 0.0 0.0 0.00 0.00 0.00 67 1053.1
20260503031459 6 33 0.0 0.0 0.00 0.00 0.00 66 1053.1
20260503030955 7 31 0.0 0.0 0.00 0.00 0.00 64 1053.1
20260503030452 7 19 0.0 0.0 0.00 0.00 0.00 63 1053.0
20260503025949 7 33 0.0 0.0 0.00 0.00 0.00 62 1053.3
20260503025446 7 22 0.0 0.0 0.00 0.00 0.00 62 1053.0
20260503024943 7 335 0.0 0.0 0.00 0.00 0.00 63 1053.2
20260503024439 7 326 0.0 0.0 0.00 0.00 0.00 63 1053.0
20260503023937 7 355 0.0 0.0 0.00 0.00 0.00 64 1053.0
20260503023434 6 326 0.0 0.0 0.00 0.00 0.00 65 1052.9
20260503022931 6 339 0.0 0.0 0.00 0.00 0.00 67 1052.9
20260503022426 6 355 0.0 0.0 0.00 0.00 0.00 69 1053.1
20260503021922 6 342 0.0 0.0 0.00 0.00 0.00 69 1052.8
20260503021418 6 344 0.0 0.0 0.00 0.00 0.00 67 1052.7
20260503020916 6 344 0.0 0.0 0.00 0.00 0.00 67 1052.5
20260503020414 7 343 0.0 0.0 0.00 0.00 0.00 64 1052.2
20260503015909 7 317 0.0 0.0 0.00 0.00 0.00 63 1052.1
20260503015407 7 317 0.0 0.0 0.00 0.00 0.00 62 1052.2
20260503014902 7 317 0.0 0.0 0.00 0.00 0.00 62 1052.1
20260503014400 7 317 0.0 0.0 0.00 0.00 0.00 60 1052.1
20260503013858 8 317 0.0 0.0 0.00 0.00 0.00 61 1052.1
20260503013354 8 317 0.0 0.0 0.00 0.00 0.00 60 1052.4
20260503012851 8 318 0.0 0.0 0.00 0.00 0.00 58 1052.0
20260503012349 8 318 0.0 0.0 0.00 0.00 0.00 58 1052.1
20260503011846 8 317 0.0 0.0 0.00 0.00 0.00 57 1052.1
20260503011343 8 317 0.0 0.0 0.00 0.00 0.00 58 1052.0
20260503010839 8 317 0.0 0.0 0.00 0.00 0.00 57 1051.9
20260503010336 9 300 0.0 0.0 0.00 0.00 0.00 57 1051.8
20260503005833 9 312 0.0 0.0 0.00 0.00 0.00 57 1051.8
20260503005331 9 319 0.0 0.0 0.00 0.00 0.00 56 1051.9
20260503004826 9 312 0.0 0.0 0.00 0.00 0.00 56 1051.6
20260503004324 9 310 0.0 0.0 0.00 0.00 0.00 56 1051.9
20260503003822 9 322 0.0 0.0 0.00 0.00 0.00 56 1051.6
20260503003318 9 303 0.0 0.0 0.00 0.00 0.00 55 1051.7
20260503002815 10 324 0.0 0.0 0.00 0.00 0.00 53 1051.5
20260503002312 10 321 0.0 0.0 0.00 0.00 0.00 54 1051.5
20260503001809 10 310 0.0 0.0 0.00 0.00 0.00 53 1051.4
20260503001305 10 312 0.0 0.0 0.00 0.00 0.00 52 1051.1
20260503000803 10 312 0.0 0.0 0.00 0.00 0.00 50 1051.2
20260503000300 10 301 0.0 0.0 0.00 0.00 0.00 50 1051.3
20260502235757 11 303 0.0 0.0 0.00 0.00 0.00 50 1051.2
20260502235254 10 306 0.0 0.0 0.00 0.00 0.00 48 1051.1
20260502234750 10 308 0.0 0.0 0.00 0.00 0.00 49 1050.9
20260502234248 10 302 0.0 0.0 0.00 0.00 0.00 50 1051.3
20260502233744 11 311 0.0 0.0 0.00 0.00 0.00 49 1051.1
20260502233241 11 298 0.0 0.0 0.00 0.00 0.00 48 1050.8
20260502232737 12 318 0.0 0.0 0.00 0.00 0.00 46 1051.0
20260502232234 12 330 0.0 0.0 0.00 0.00 0.00 47 1050.9
20260502231730 12 329 0.0 0.0 0.00 0.00 0.00 45 1051.0
20260502231228 12 322 0.0 0.0 0.00 0.00 0.00 46 1050.9
20260502230727 11 337 0.0 0.0 0.00 0.00 0.00 50 1050.9
20260502230225 11 2 0.0 0.0 0.00 0.00 0.00 49 1050.9
20260502225720 11 4 0.0 0.0 0.00 0.00 0.00 49 1051.0
20260502225218 12 334 0.0 0.0 0.00 0.00 0.00 50 1051.0
20260502224714 12 12 0.0 0.0 0.00 0.00 0.00 50 1051.2
20260502224211 12 27 0.0 0.0 0.00 0.00 0.00 50 1051.0
20260502223708 11 12 0.0 0.0 0.00 0.00 0.00 49 1051.0
20260502223206 11 312 0.0 0.0 0.00 0.00 0.00 51 1051.1
20260502222704 11 335 0.0 0.0 0.00 0.00 0.00 51 1051.1
20260502222200 11 306 0.0 0.0 0.00 0.00 0.00 51 1051.1
20260502221656 11 323 0.0 0.0 0.00 0.00 0.00 54 1051.3
20260502221153 11 289 0.0 0.0 0.00 0.00 0.00 51 1051.2
20260502220649 12 276 0.0 0.0 0.00 0.00 0.00 50 1051.3
20260502220145 12 283 0.0 0.0 0.00 0.00 0.00 51 1051.3
20260502215643 11 277 0.0 0.0 0.00 0.00 0.00 49 1051.2
20260502215139 11 316 0.0 0.0 0.00 0.00 0.00 52 1051.0
20260502214637 11 319 0.0 0.0 0.00 0.00 0.00 50 1050.9
20260502214134 12 320 0.0 0.0 0.00 0.00 0.00 50 1051.0